Regional Weather Roundup
Issued by NWS Northern Indiana

Home | Current Version | Previous Version | Graphics & Text | Print | Product List | Glossary On
Versions: 1 2 3 4 5 6 7 8 9 10 11 12 13 14 15 16 17 18 19 20 21 22 23 24 25 26 27 28 29 30 31 32 33 34 35 36 37 38 39 40 41 42 43 44 45 46 47 48 49 50
000
ASUS43 KIWX 290300
RWRIWX

KIWX WEATHER ROUNDUP
NATIONAL WEATHER SERVICE NORTHERN INDIANA
1000 PM EST SUN DEC 28 2014

NOTE: "FAIR" INDICATES FEW OR NO CLOUDS BELOW 12,000 FEET WITH NO
SIGNIFICANT WEATHER AND/OR OBSTRUCTIONS TO VISIBILITY.

* THESE STATIONS ARE NOT UNDER NWS QUALITY CONTROL. THEY ALSO MAY NOT
  REPORT WEATHER SUCH AS PRECIPITATION OR FOG.

INZ001>027-290400-
NORTHERN INDIANA

CITY           SKY/WX    TMP DP  RH WIND       PRES   REMARKS
GARY*          CLEAR     22  15  75 W3        30.23S
SOUTH BEND     CLEAR     25  16  68 CALM      30.22R
GOSHEN         CLEAR     26  23  88 W6        30.21R WCI  19
ANGOLA*        CLEAR     25  21  86 CALM      30.18R
FORT WAYNE     CLEAR     26  24  92 W6        30.22R WCI  19
PERU/GRISSOM   CLEAR     22  22 100 W2        30.21R

$$
INZ028>050-290400-
CENTRAL INDIANA

CITY           SKY/WX    TMP DP  RH WIND       PRES   REMARKS
LAFAYETTE      CLEAR     21  20  96 CALM      30.24R FOG
KOKOMO*        CLEAR     25  19  80 CALM      30.21F
MUNCIE*        CLEAR     27  24  89 NW3       30.21R
INDIANAPOLIS   PTCLDY    24  21  88 N5        30.22R WCI  18

$$
MIZ043>046-050>051-056>058-064>065-071>073-077>080-290400-
SOUTHWEST LOWER MICHIGAN

CITY           SKY/WX    TMP DP  RH WIND       PRES   REMARKS
BATTLE CREEK   CLOUDY    29  21  72 W6        30.19S WCI  23
BENTON HARBOR  CLOUDY    26  24  92 CALM      30.22R
COLDWATER*     CLEAR     26  20  81 NW5       30.18S WCI  20
HILLSDALE*     CLEAR     26  22  84 NW7       30.16S WCI  19
HOLLAND        CLOUDY    33  21  61 VRB5      30.21R WCI  29
GRAND RAPIDS   CLOUDY    30  20  66 NW9       30.20R WCI  22
KALAMAZOO      CLOUDY    30  21  69 W6        30.20S WCI  24
STURGIS*       CLEAR     25  19  80 W3        30.20R
THREE RIVERS*  FAIR      25  22  87 W3        30.22R

$$
OHZ001>008-015>018-024>025-290400-
NORTHWEST OHIO

CITY           SKY/WX    TMP DP  RH WIND       PRES   REMARKS
DEFIANCE       CLEAR     29  24  82 CALM      30.20S
FINDLAY        CLEAR     28  24  85 W6        30.18S WCI  22
TOLEDO EXPRESS CLEAR     27  23  85 SW5       30.19R WCI  22
TOLEDO METCALF FAIR      28  22  78 W7        30.20R WCI  21
LIMA           CLEAR     31  26  82 W6        30.17S WCI  25

$$
AND FOR LAKE MICHIGAN COASTAL AND OPEN LAKE BUOY OBSERVATIONS

STATION/POSITION TEMP    WIND        PRES    VSBY  WAVE
                 AIR SEA DIR/SP/G                  HT/PER
                 (F)     (DEG/KT/KT) (MB)    (MI)  (FT/S)
CALUMET HARBOR    29     230/  5/  6 1022.1R
MICHIGAN CITY     29     190/  6/  8   N/A
SAINT JOSEPH      33     270/  6/  8 1023.4S
MICHIGAN CITY CG     37                N/A       6   1

$$
&&



USA.gov is the U.S. government's official web portal to all federal, state and local government web resources and services.